Time,TemperatureF,DewpointF,PressureIn,WindDirection,WindDirectionDegrees,WindSpeedMPH,WindSpeedGustMPH,Humidity,HourlyPrecipIn,Conditions,Clouds,dailyrainin,SoftwareType,DateUTC
2013-08-05 00:02:00,72.9,66.0,29.85,ESE,112,1.0,0.0,79,0.00,,---,0.00,VWS V14.00,2013-08-05 05:02:00,
2013-08-05 00:08:00,72.9,66.0,29.85,ENE,68,1.0,1.0,79,0.00,,---,0.00,VWS V14.00,2013-08-05 05:08:00,
2013-08-05 00:13:00,73.0,66.2,29.85,NNE,22,1.0,0.0,79,0.00,,---,0.00,VWS V14.00,2013-08-05 05:13:00,
2013-08-05 00:17:00,73.0,65.8,29.85,NNE,22,1.0,1.1,78,0.00,,---,0.00,VWS V14.00,2013-08-05 05:17:00,
2013-08-05 00:23:00,73.0,65.8,29.85,NNE,22,1.0,1.0,78,0.00,,---,0.00,VWS V14.00,2013-08-05 05:23:00,
2013-08-05 00:29:00,73.0,65.8,29.85,NNE,22,1.0,0.0,78,0.00,,---,0.00,VWS V14.00,2013-08-05 05:29:00,
2013-08-05 00:34:00,72.9,65.6,29.85,NNE,22,1.0,0.0,78,0.00,,---,0.00,VWS V14.00,2013-08-05 05:34:00,
2013-08-05 00:38:00,72.9,66.0,29.85,NNE,22,2.7,2.7,79,0.00,,---,0.00,VWS V14.00,2013-08-05 05:38:00,
2013-08-05 00:44:00,72.9,66.0,29.85,North,0,2.7,2.7,79,0.00,,---,0.00,VWS V14.00,2013-08-05 05:44:00,
2013-08-05 00:49:00,72.9,66.0,29.85,NNE,22,2.7,2.7,79,0.00,,---,0.00,VWS V14.00,2013-08-05 05:49:00,
2013-08-05 00:53:00,72.9,66.0,29.85,North,0,2.7,2.7,79,0.00,,---,0.00,VWS V14.00,2013-08-05 05:53:00,
2013-08-05 00:59:00,72.9,66.0,29.85,North,0,1.0,1.1,79,0.00,,---,0.00,VWS V14.00,2013-08-05 05:59:00,
2013-08-05 01:04:00,72.9,66.0,29.85,North,0,1.0,0.0,79,0.00,,---,0.00,VWS V14.00,2013-08-05 06:04:00,
2013-08-05 01:09:00,72.9,66.0,29.85,North,0,3.0,3.0,79,0.00,,---,0.00,VWS V14.00,2013-08-05 06:09:00,
2013-08-05 01:14:00,72.7,65.8,29.85,North,0,1.0,1.3,79,0.00,,---,0.00,VWS V14.00,2013-08-05 06:14:00,
2013-08-05 01:19:00,72.7,65.8,29.85,North,0,2.4,2.4,79,0.00,,---,0.00,VWS V14.00,2013-08-05 06:19:00,
2013-08-05 01:24:00,72.7,65.8,29.85,North,0,2.7,2.7,79,0.00,,---,0.00,VWS V14.00,2013-08-05 06:24:00,
2013-08-05 01:30:00,72.7,65.8,29.85,North,0,1.0,1.0,79,0.00,,---,0.00,VWS V14.00,2013-08-05 06:30:00,
2013-08-05 01:35:00,72.7,65.8,29.85,North,0,2.7,2.7,79,0.00,,---,0.00,VWS V14.00,2013-08-05 06:35:00,
2013-08-05 01:41:00,72.7,65.8,29.85,North,0,1.0,1.3,79,0.00,,---,0.00,VWS V14.00,2013-08-05 06:41:00,
2013-08-05 01:46:00,72.7,65.8,29.85,North,0,2.7,2.7,79,0.00,,---,0.00,VWS V14.00,2013-08-05 06:46:00,
2013-08-05 01:51:00,72.7,65.8,29.85,North,0,2.4,2.4,79,0.00,,---,0.00,VWS V14.00,2013-08-05 06:51:00,
2013-08-05 01:57:00,72.7,65.8,29.85,North,0,2.7,2.7,79,0.00,,---,0.00,VWS V14.00,2013-08-05 06:57:00,
2013-08-05 02:02:00,72.7,65.4,29.85,North,0,2.7,2.7,78,0.00,,---,0.00,VWS V14.00,2013-08-05 07:02:00,
2013-08-05 02:07:00,72.9,65.6,29.85,North,0,2.1,2.1,78,0.00,,---,0.00,VWS V14.00,2013-08-05 07:07:00,
2013-08-05 02:13:00,72.7,65.8,29.85,North,0,2.4,2.4,79,0.00,,---,0.00,VWS V14.00,2013-08-05 07:13:00,
2013-08-05 02:18:00,72.7,65.8,29.85,North,0,2.1,2.1,79,0.00,,---,0.00,VWS V14.00,2013-08-05 07:18:00,
2013-08-05 02:23:00,72.7,65.8,29.85,North,0,1.0,0.0,79,0.00,,---,0.00,VWS V14.00,2013-08-05 07:23:00,
2013-08-05 02:28:00,72.7,65.8,29.85,North,0,1.0,0.0,79,0.00,,---,0.00,VWS V14.00,2013-08-05 07:28:00,
2013-08-05 02:34:00,72.7,65.8,29.85,North,0,1.0,0.0,79,0.00,,---,0.00,VWS V14.00,2013-08-05 07:34:00,
2013-08-05 02:39:00,72.7,65.8,29.85,NE,45,2.7,2.7,79,0.00,,---,0.00,VWS V14.00,2013-08-05 07:39:00,
2013-08-05 02:44:00,72.7,65.8,29.85,ENE,68,3.0,3.0,79,0.00,,---,0.00,VWS V14.00,2013-08-05 07:44:00,
2013-08-05 02:50:00,72.7,65.8,29.82,North,0,2.7,2.7,79,0.00,,---,0.00,VWS V14.00,2013-08-05 07:50:00,
2013-08-05 02:55:00,72.7,65.8,29.82,North,0,1.0,1.3,79,0.00,,---,0.00,VWS V14.00,2013-08-05 07:55:00,
2013-08-05 03:00:00,72.7,65.8,29.82,North,0,2.4,2.5,79,0.00,,---,0.00,VWS V14.00,2013-08-05 08:00:00,
2013-08-05 03:05:00,72.7,65.8,29.85,North,0,3.0,3.0,79,0.00,,---,0.00,VWS V14.00,2013-08-05 08:05:00,
2013-08-05 03:11:00,72.7,65.8,29.85,NNE,22,2.4,2.4,79,0.00,,---,0.00,VWS V14.00,2013-08-05 08:11:00,
2013-08-05 03:16:00,72.7,65.8,29.85,NNE,22,1.0,0.0,79,0.00,,---,0.00,VWS V14.00,2013-08-05 08:16:00,
2013-08-05 03:21:00,72.7,65.8,29.82,NNW,338,1.0,1.6,79,0.00,,---,0.00,VWS V14.00,2013-08-05 08:21:00,
2013-08-05 03:26:00,72.7,65.8,29.82,East,90,1.0,1.3,79,0.00,,---,0.00,VWS V14.00,2013-08-05 08:26:00,
2013-08-05 03:31:00,72.7,65.8,29.82,ESE,112,3.5,3.5,79,0.00,,---,0.00,VWS V14.00,2013-08-05 08:31:00,
2013-08-05 03:36:00,72.5,65.6,29.82,ESE,112,3.0,4.3,79,0.00,,---,0.00,VWS V14.00,2013-08-05 08:36:00,
2013-08-05 03:41:00,72.5,65.6,29.82,ESE,112,3.5,3.5,79,0.00,,---,0.00,VWS V14.00,2013-08-05 08:41:00,
2013-08-05 03:48:00,72.5,65.6,29.79,SSE,158,5.2,5.2,79,0.00,,---,0.00,VWS V14.00,2013-08-05 08:48:00,
2013-08-05 03:53:00,72.5,65.6,29.79,SE,135,4.9,4.9,79,0.00,,---,0.00,VWS V14.00,2013-08-05 08:53:00,
2013-08-05 03:58:00,72.5,65.6,29.79,ESE,112,2.4,2.4,79,0.00,,---,0.00,VWS V14.00,2013-08-05 08:58:00,
2013-08-05 04:04:00,72.5,65.6,29.82,ESE,112,6.0,6.0,79,0.00,,---,0.00,VWS V14.00,2013-08-05 09:04:00,
2013-08-05 04:08:00,72.5,65.6,29.82,East,90,2.7,5.4,79,0.00,,---,0.00,VWS V14.00,2013-08-05 09:08:00,
2013-08-05 04:17:00,72.5,65.6,29.82,North,0,1.0,0.0,79,0.00,,---,0.00,VWS V14.00,2013-08-05 09:17:00,
2013-08-05 04:22:00,72.5,65.3,29.82,North,0,1.0,1.0,78,0.00,,---,0.00,VWS V14.00,2013-08-05 09:22:00,
2013-08-05 04:29:00,72.5,65.3,29.82,ESE,112,3.8,3.8,78,0.00,,---,0.00,VWS V14.00,2013-08-05 09:29:00,
2013-08-05 04:33:00,72.3,65.1,29.82,ESE,112,4.1,4.1,78,0.00,,---,0.00,VWS V14.00,2013-08-05 09:33:00,
2013-08-05 04:40:00,72.3,65.1,29.82,East,90,2.7,2.7,78,0.00,,---,0.00,VWS V14.00,2013-08-05 09:40:00,
2013-08-05 04:45:00,72.1,65.3,29.82,ESE,112,3.5,3.5,79,0.00,,---,0.00,VWS V14.00,2013-08-05 09:45:00,
2013-08-05 04:50:00,72.1,64.9,29.82,ESE,112,3.5,3.5,78,0.00,,---,0.00,VWS V14.00,2013-08-05 09:50:00,
2013-08-05 04:55:00,72.0,64.7,29.82,SE,135,5.5,5.5,78,0.00,,---,0.00,VWS V14.00,2013-08-05 09:55:00,
2013-08-05 05:00:00,72.0,64.7,29.82,SE,135,7.2,7.2,78,0.00,,---,0.00,VWS V14.00,2013-08-05 10:00:00,
2013-08-05 05:05:00,72.0,65.1,29.82,SE,135,3.5,3.5,79,0.00,,---,0.00,VWS V14.00,2013-08-05 10:05:00,
2013-08-05 05:11:00,71.8,64.9,29.82,SE,135,2.4,2.5,79,0.00,,---,0.00,VWS V14.00,2013-08-05 10:11:00,
2013-08-05 05:16:00,71.8,64.9,29.82,East,90,2.1,2.1,79,0.00,,---,0.00,VWS V14.00,2013-08-05 10:16:00,
2013-08-05 05:22:00,71.8,64.9,29.82,SE,135,3.0,3.0,79,0.00,,---,0.00,VWS V14.00,2013-08-05 10:22:00,
2013-08-05 05:27:00,71.8,64.9,29.82,ESE,112,1.0,0.0,79,0.00,,---,0.00,VWS V14.00,2013-08-05 10:27:00,
2013-08-05 05:31:00,71.8,64.9,29.82,SSE,158,4.1,4.1,79,0.00,,---,0.00,VWS V14.00,2013-08-05 10:31:00,
2013-08-05 05:38:00,71.6,64.8,29.82,SE,135,3.0,3.0,79,0.00,,---,0.00,VWS V14.00,2013-08-05 10:38:00,
2013-08-05 05:44:00,71.6,65.1,29.82,ESE,112,3.0,3.0,80,0.00,,---,0.00,VWS V14.00,2013-08-05 10:44:00,
2013-08-05 05:49:00,71.6,65.1,29.82,ESE,112,3.0,3.0,80,0.00,,---,0.00,VWS V14.00,2013-08-05 10:49:00,
2013-08-05 05:54:00,71.6,65.1,29.82,ESE,112,1.0,0.0,80,0.00,,---,0.00,VWS V14.00,2013-08-05 10:54:00,
2013-08-05 06:00:00,71.6,65.1,29.82,ESE,112,1.0,0.0,80,0.00,,---,0.00,VWS V14.00,2013-08-05 11:00:00,
2013-08-05 06:06:00,71.6,65.1,29.85,SW,225,1.0,0.0,80,0.00,,---,0.00,VWS V14.00,2013-08-05 11:06:00,
2013-08-05 06:11:00,71.4,64.9,29.85,SW,225,1.0,0.0,80,0.00,,---,0.00,VWS V14.00,2013-08-05 11:11:00,
2013-08-05 06:17:00,71.4,64.9,29.82,South,180,3.5,3.5,80,0.00,,---,0.00,VWS V14.00,2013-08-05 11:17:00,
2013-08-05 06:22:00,71.4,65.3,29.82,SW,225,2.7,2.7,81,0.00,,---,0.00,VWS V14.00,2013-08-05 11:22:00,
2013-08-05 06:29:00,71.4,65.3,29.82,SW,225,3.5,3.5,81,0.00,,---,0.00,VWS V14.00,2013-08-05 11:29:00,
2013-08-05 06:35:00,71.4,65.3,29.82,SE,135,4.4,4.4,81,0.00,,---,0.00,VWS V14.00,2013-08-05 11:35:00,
2013-08-05 06:40:00,71.1,64.9,29.82,SE,135,4.1,4.1,81,0.04,,---,0.04,VWS V14.00,2013-08-05 11:40:00,
2013-08-05 06:45:00,70.9,65.1,29.82,SSE,158,5.2,5.2,82,0.04,,---,0.04,VWS V14.00,2013-08-05 11:45:00,
2013-08-05 06:50:00,70.7,65.3,29.82,ESE,112,1.0,1.1,83,0.04,,---,0.04,VWS V14.00,2013-08-05 11:50:00,
2013-08-05 06:55:00,70.5,64.8,29.82,SE,135,3.5,3.5,82,0.04,,---,0.04,VWS V14.00,2013-08-05 11:55:00,
2013-08-05 07:01:00,70.5,64.8,29.82,SSE,158,4.1,4.1,82,0.04,,---,0.04,VWS V14.00,2013-08-05 12:01:00,
2013-08-05 07:07:00,70.5,65.1,29.82,ESE,112,3.8,3.8,83,0.04,,---,0.04,VWS V14.00,2013-08-05 12:07:00,
2013-08-05 07:12:00,70.3,65.3,29.82,ENE,68,1.0,1.6,84,0.04,,---,0.04,VWS V14.00,2013-08-05 12:12:00,
2013-08-05 07:18:00,70.3,65.3,29.82,ENE,68,1.0,0.0,84,0.04,,---,0.04,VWS V14.00,2013-08-05 12:18:00,
2013-08-05 07:23:00,70.3,65.3,29.82,ESE,112,2.4,2.4,84,0.04,,---,0.04,VWS V14.00,2013-08-05 12:23:00,
2013-08-05 07:29:00,70.5,65.5,29.82,East,90,1.0,0.0,84,0.04,,---,0.04,VWS V14.00,2013-08-05 12:29:00,
2013-08-05 07:34:00,70.5,65.8,29.82,East,90,1.0,1.6,85,0.04,,---,0.04,VWS V14.00,2013-08-05 12:34:00,
2013-08-05 07:38:00,70.5,65.8,29.82,SE,135,4.1,4.1,85,0.00,,---,0.04,VWS V14.00,2013-08-05 12:38:00,
2013-08-05 07:44:00,70.5,65.8,29.82,ESE,112,1.0,0.0,85,0.00,,---,0.04,VWS V14.00,2013-08-05 12:44:00,
2013-08-05 07:49:00,70.7,66.0,29.82,East,90,1.0,2.2,85,0.00,,---,0.04,VWS V14.00,2013-08-05 12:49:00,
2013-08-05 07:56:00,70.5,65.5,29.82,SSE,158,5.2,5.2,84,0.00,,---,0.04,VWS V14.00,2013-08-05 12:56:00,
2013-08-05 08:02:00,70.5,65.8,29.82,SE,135,5.5,5.5,85,0.00,,---,0.04,VWS V14.00,2013-08-05 13:02:00,
2013-08-05 08:07:00,70.5,65.8,29.82,SE,135,5.8,5.8,85,0.00,,---,0.04,VWS V14.00,2013-08-05 13:07:00,
2013-08-05 08:12:00,70.7,66.0,29.82,South,180,4.9,4.9,85,0.04,,---,0.08,VWS V14.00,2013-08-05 13:12:00,
2013-08-05 08:18:00,70.9,66.2,29.79,ESE,112,3.5,3.5,85,0.04,,---,0.08,VWS V14.00,2013-08-05 13:18:00,
2013-08-05 08:23:00,70.9,66.5,29.79,SE,135,6.3,6.3,86,0.04,,---,0.08,VWS V14.00,2013-08-05 13:23:00,
2013-08-05 08:28:00,71.1,66.7,29.79,SE,135,6.3,6.3,86,0.04,,---,0.08,VWS V14.00,2013-08-05 13:28:00,
2013-08-05 08:33:00,71.1,67.0,29.82,SSE,158,5.5,5.5,87,0.04,,---,0.08,VWS V14.00,2013-08-05 13:33:00,
2013-08-05 08:39:00,71.2,67.2,29.82,SE,135,4.4,4.7,87,0.04,,---,0.08,VWS V14.00,2013-08-05 13:39:00,
2013-08-05 08:44:00,71.4,67.3,29.82,South,180,2.1,2.1,87,0.04,,---,0.08,VWS V14.00,2013-08-05 13:44:00,
2013-08-05 08:49:00,71.4,67.7,29.82,SE,135,1.0,2.5,88,0.04,,---,0.08,VWS V14.00,2013-08-05 13:49:00,
2013-08-05 08:55:00,71.4,67.3,29.82,SSE,158,3.0,3.0,87,0.04,,---,0.08,VWS V14.00,2013-08-05 13:55:00,
2013-08-05 09:00:00,71.6,67.2,29.82,SSE,158,5.8,5.8,86,0.04,,---,0.08,VWS V14.00,2013-08-05 14:00:00,
2013-08-05 09:06:00,71.8,67.7,29.79,SSE,158,4.1,4.1,87,0.04,,---,0.08,VWS V14.00,2013-08-05 14:06:00,
2013-08-05 09:11:00,71.8,67.7,29.79,SSE,158,4.9,4.9,87,0.00,,---,0.08,VWS V14.00,2013-08-05 14:11:00,
2013-08-05 09:18:00,71.8,68.0,29.82,SSE,158,4.6,4.6,88,0.00,,---,0.08,VWS V14.00,2013-08-05 14:18:00,
2013-08-05 09:24:00,71.8,68.0,29.82,South,180,3.8,3.8,88,0.00,,---,0.08,VWS V14.00,2013-08-05 14:24:00,
2013-08-05 09:30:00,71.8,68.0,29.82,SW,225,1.0,1.0,88,0.00,,---,0.08,VWS V14.00,2013-08-05 14:30:00,
2013-08-05 09:35:00,72.0,68.2,29.82,SW,225,4.1,4.1,88,0.00,,---,0.08,VWS V14.00,2013-08-05 14:35:00,
2013-08-05 09:42:00,72.0,68.2,29.82,South,180,2.7,2.7,88,0.00,,---,0.08,VWS V14.00,2013-08-05 14:42:00,
2013-08-05 09:48:00,72.0,68.2,29.82,South,180,3.0,3.4,88,0.00,,---,0.08,VWS V14.00,2013-08-05 14:48:00,
2013-08-05 09:52:00,72.0,68.2,29.82,SSE,158,4.4,4.4,88,0.00,,---,0.08,VWS V14.00,2013-08-05 14:52:00,
2013-08-05 09:58:00,72.0,68.2,29.82,SSE,158,4.9,4.9,88,0.00,,---,0.08,VWS V14.00,2013-08-05 14:58:00,
2013-08-05 10:03:00,72.0,68.2,29.82,SSW,202,5.2,5.2,88,0.00,,---,0.08,VWS V14.00,2013-08-05 15:03:00,
2013-08-05 10:07:00,71.8,67.7,29.82,SW,225,3.8,3.8,87,0.00,,---,0.08,VWS V14.00,2013-08-05 15:07:00,
2013-08-05 10:13:00,71.8,68.0,29.82,SSW,202,3.5,3.5,88,0.00,,---,0.08,VWS V14.00,2013-08-05 15:13:00,
2013-08-05 10:18:00,71.8,68.0,29.82,SE,135,3.0,3.4,88,0.00,,---,0.08,VWS V14.00,2013-08-05 15:18:00,
2013-08-05 10:24:00,71.8,68.0,29.82,WSW,248,3.0,3.0,88,0.00,,---,0.08,VWS V14.00,2013-08-05 15:24:00,
2013-08-05 10:29:00,71.8,68.0,29.82,South,180,4.1,4.1,88,0.00,,---,0.08,VWS V14.00,2013-08-05 15:29:00,
2013-08-05 10:34:00,71.8,68.0,29.82,SSW,202,4.4,4.4,88,0.00,,---,0.08,VWS V14.00,2013-08-05 15:34:00,
2013-08-05 10:38:00,71.8,68.0,29.82,SSW,202,6.0,6.0,88,0.00,,---,0.08,VWS V14.00,2013-08-05 15:38:00,
2013-08-05 10:45:00,71.8,68.4,29.82,SE,135,5.8,5.8,89,0.00,,---,0.08,VWS V14.00,2013-08-05 15:45:00,
2013-08-05 10:50:00,71.8,68.4,29.82,SSE,158,4.6,4.6,89,0.00,,---,0.08,VWS V14.00,2013-08-05 15:50:00,
2013-08-05 10:55:00,71.8,68.4,29.82,SSE,158,3.8,3.8,89,0.00,,---,0.08,VWS V14.00,2013-08-05 15:55:00,
2013-08-05 11:01:00,71.8,68.4,29.82,South,180,3.8,3.8,89,0.00,,---,0.08,VWS V14.00,2013-08-05 16:01:00,
2013-08-05 11:06:00,71.8,68.4,29.82,SE,135,3.5,3.6,89,0.00,,---,0.08,VWS V14.00,2013-08-05 16:06:00,
2013-08-05 11:12:00,71.8,68.4,29.82,SE,135,5.2,5.2,89,0.00,,---,0.08,VWS V14.00,2013-08-05 16:12:00,
2013-08-05 11:17:00,71.8,68.4,29.82,South,180,3.0,3.8,89,0.00,,---,0.08,VWS V14.00,2013-08-05 16:17:00,
2013-08-05 11:22:00,72.0,68.6,29.82,SSW,202,4.1,4.1,89,0.04,,---,0.12,VWS V14.00,2013-08-05 16:22:00,
2013-08-05 11:26:00,72.0,68.9,29.82,SE,135,4.9,4.9,90,0.04,,---,0.12,VWS V14.00,2013-08-05 16:26:00,
2013-08-05 11:32:00,72.0,68.9,29.82,SE,135,5.2,5.8,90,0.04,,---,0.12,VWS V14.00,2013-08-05 16:32:00,
2013-08-05 11:36:00,72.0,68.9,29.82,SSE,158,3.8,3.8,90,0.04,,---,0.12,VWS V14.00,2013-08-05 16:36:00,
2013-08-05 11:42:00,72.0,68.9,29.82,SSW,202,4.6,4.6,90,0.04,,---,0.12,VWS V14.00,2013-08-05 16:42:00,
2013-08-05 11:47:00,72.0,68.9,29.82,SE,135,3.0,3.0,90,0.04,,---,0.12,VWS V14.00,2013-08-05 16:47:00,
2013-08-05 11:51:00,72.1,69.1,29.82,SW,225,1.0,1.3,90,0.04,,---,0.12,VWS V14.00,2013-08-05 16:51:00,
2013-08-05 11:57:00,72.1,69.1,29.82,South,180,3.8,3.8,90,0.04,,---,0.12,VWS V14.00,2013-08-05 16:57:00,
2013-08-05 12:02:00,72.3,69.6,29.79,South,180,1.0,1.1,91,0.04,,---,0.12,VWS V14.00,2013-08-05 17:02:00,
2013-08-05 12:07:00,72.5,69.7,29.79,SE,135,5.2,5.2,91,0.04,,---,0.12,VWS V14.00,2013-08-05 17:07:00,
2013-08-05 12:13:00,72.3,69.2,29.79,SSW,202,4.1,4.1,90,0.08,,---,0.16,VWS V14.00,2013-08-05 17:13:00,
2013-08-05 12:18:00,72.3,69.2,29.79,SSW,202,5.8,5.8,90,0.08,,---,0.16,VWS V14.00,2013-08-05 17:18:00,
2013-08-05 12:23:00,72.3,69.2,29.79,SSE,158,4.6,4.6,90,0.04,,---,0.16,VWS V14.00,2013-08-05 17:23:00,
2013-08-05 12:28:00,72.3,69.2,29.79,SSW,202,6.9,6.9,90,0.04,,---,0.16,VWS V14.00,2013-08-05 17:28:00,
2013-08-05 12:32:00,72.3,69.2,29.79,SSE,158,4.1,4.3,90,0.04,,---,0.16,VWS V14.00,2013-08-05 17:32:00,
2013-08-05 12:37:00,72.3,69.6,29.79,SE,135,4.9,4.9,91,0.04,,---,0.16,VWS V14.00,2013-08-05 17:37:00,
2013-08-05 12:44:00,72.5,69.7,29.79,SE,135,3.8,4.0,91,0.08,,---,0.20,VWS V14.00,2013-08-05 17:44:00,
2013-08-05 12:51:00,72.5,69.7,29.79,SSE,158,2.7,2.7,91,0.08,,---,0.20,VWS V14.00,2013-08-05 17:51:00,
2013-08-05 12:56:00,72.7,69.9,29.79,ESE,112,2.4,2.7,91,0.08,,---,0.20,VWS V14.00,2013-08-05 17:56:00,
2013-08-05 13:01:00,72.7,69.9,29.79,SE,135,4.1,4.3,91,0.08,,---,0.20,VWS V14.00,2013-08-05 18:01:00,
2013-08-05 13:08:00,72.7,69.9,29.79,SSE,158,3.5,3.5,91,0.08,,---,0.20,VWS V14.00,2013-08-05 18:08:00,
2013-08-05 13:13:00,72.7,69.9,29.79,SE,135,4.4,4.4,91,0.04,,---,0.20,VWS V14.00,2013-08-05 18:13:00,
2013-08-05 13:18:00,72.7,70.2,29.79,NNE,22,1.0,1.3,92,0.04,,---,0.20,VWS V14.00,2013-08-05 18:18:00,
2013-08-05 13:23:00,72.7,70.2,29.79,East,90,1.0,0.0,92,0.04,,---,0.20,VWS V14.00,2013-08-05 18:23:00,
2013-08-05 13:30:00,72.7,70.2,29.79,NE,45,1.0,0.0,92,0.04,,---,0.20,VWS V14.00,2013-08-05 18:30:00,
2013-08-05 13:35:00,72.9,70.4,29.79,North,0,1.0,1.3,92,0.04,,---,0.20,VWS V14.00,2013-08-05 18:35:00,
2013-08-05 13:41:00,73.0,70.6,29.79,North,0,1.0,1.6,92,0.00,,---,0.20,VWS V14.00,2013-08-05 18:41:00,
2013-08-05 13:47:00,73.0,70.6,29.79,North,0,2.1,2.2,92,0.00,,---,0.20,VWS V14.00,2013-08-05 18:47:00,
2013-08-05 13:53:00,73.0,70.6,29.79,NNW,338,2.7,2.7,92,0.00,,---,0.20,VWS V14.00,2013-08-05 18:53:00,
2013-08-05 13:59:00,73.2,70.8,29.79,NNW,338,1.0,0.0,92,0.00,,---,0.20,VWS V14.00,2013-08-05 18:59:00,
2013-08-05 14:05:00,73.4,70.9,29.79,North,0,1.0,0.0,92,0.00,,---,0.20,VWS V14.00,2013-08-05 19:05:00,
2013-08-05 14:10:00,73.8,71.3,29.79,ESE,112,2.7,2.7,92,0.00,,---,0.20,VWS V14.00,2013-08-05 19:10:00,
2013-08-05 14:15:00,74.1,71.7,29.79,ESE,112,3.0,3.0,92,0.00,,---,0.20,VWS V14.00,2013-08-05 19:15:00,
2013-08-05 14:20:00,74.5,72.0,29.76,ESE,112,5.2,5.2,92,0.00,,---,0.20,VWS V14.00,2013-08-05 19:20:00,
2013-08-05 14:25:00,74.8,72.4,29.76,ESE,112,4.9,4.9,92,0.00,,---,0.20,VWS V14.00,2013-08-05 19:25:00,
2013-08-05 14:31:00,75.0,72.5,29.76,ESE,112,4.1,4.1,92,0.00,,---,0.20,VWS V14.00,2013-08-05 19:31:00,
2013-08-05 14:36:00,75.0,72.5,29.76,SE,135,3.0,3.4,92,0.00,,---,0.20,VWS V14.00,2013-08-05 19:36:00,
2013-08-05 14:43:00,75.4,72.6,29.76,ESE,112,3.0,3.4,91,0.00,,---,0.20,VWS V14.00,2013-08-05 19:43:00,
2013-08-05 14:48:00,75.4,72.6,29.76,ESE,112,3.8,4.0,91,0.00,,---,0.20,VWS V14.00,2013-08-05 19:48:00,
2013-08-05 14:53:00,75.7,72.9,29.76,ESE,112,5.2,5.2,91,0.00,,---,0.20,VWS V14.00,2013-08-05 19:53:00,
2013-08-05 14:59:00,76.1,73.6,29.76,ESE,112,4.6,4.6,92,0.00,,---,0.20,VWS V14.00,2013-08-05 19:59:00,
2013-08-05 15:04:00,76.3,73.5,29.76,SW,225,2.7,2.7,91,0.00,,---,0.20,VWS V14.00,2013-08-05 20:04:00,
2013-08-05 15:09:00,76.3,73.5,29.76,ESE,112,3.5,3.5,91,0.00,,---,0.20,VWS V14.00,2013-08-05 20:09:00,
2013-08-05 15:14:00,76.6,73.8,29.76,SSE,158,3.8,3.8,91,0.00,,---,0.20,VWS V14.00,2013-08-05 20:14:00,
2013-08-05 15:20:00,77.0,74.2,29.76,SSE,158,1.0,2.7,91,0.00,,---,0.20,VWS V14.00,2013-08-05 20:20:00,
2013-08-05 15:25:00,77.0,73.8,29.76,North,0,1.0,0.0,90,0.00,,---,0.20,VWS V14.00,2013-08-05 20:25:00,
2013-08-05 15:30:00,77.0,73.8,29.76,North,0,1.0,0.0,90,0.00,,---,0.20,VWS V14.00,2013-08-05 20:30:00,
2013-08-05 15:38:00,77.0,73.5,29.76,South,180,1.0,2.7,89,0.00,,---,0.20,VWS V14.00,2013-08-05 20:38:00,
2013-08-05 15:43:00,77.2,73.7,29.76,SE,135,1.0,0.0,89,0.00,,---,0.20,VWS V14.00,2013-08-05 20:43:00,
2013-08-05 15:48:00,77.4,73.9,29.74,East,90,1.0,1.6,89,0.00,,---,0.20,VWS V14.00,2013-08-05 20:48:00,
2013-08-05 15:53:00,77.5,74.1,29.74,SE,135,1.0,0.0,89,0.00,,---,0.20,VWS V14.00,2013-08-05 20:53:00,
2013-08-05 15:58:00,77.7,74.2,29.74,South,180,1.0,2.2,89,0.00,,---,0.20,VWS V14.00,2013-08-05 20:58:00,
2013-08-05 16:03:00,77.7,74.2,29.74,SSE,158,1.0,0.0,89,0.00,,---,0.20,VWS V14.00,2013-08-05 21:03:00,
2013-08-05 16:08:00,78.1,74.6,29.74,SSE,158,4.4,4.4,89,0.00,,---,0.20,VWS V14.00,2013-08-05 21:08:00,
2013-08-05 16:13:00,78.4,75.3,29.74,SW,225,2.1,2.1,90,0.00,,---,0.20,VWS V14.00,2013-08-05 21:13:00,
2013-08-05 16:18:00,78.8,75.3,29.74,South,180,2.1,2.1,89,0.00,,---,0.20,VWS V14.00,2013-08-05 21:18:00,
2013-08-05 16:23:00,79.0,75.5,29.74,SSW,202,1.0,1.3,89,0.00,,---,0.20,VWS V14.00,2013-08-05 21:23:00,
2013-08-05 16:28:00,79.3,75.8,29.74,SW,225,4.1,4.1,89,0.00,,---,0.20,VWS V14.00,2013-08-05 21:28:00,
2013-08-05 16:33:00,79.3,75.5,29.74,SE,135,3.5,3.5,88,0.00,,---,0.20,VWS V14.00,2013-08-05 21:33:00,
2013-08-05 16:38:00,79.3,75.5,29.74,South,180,1.0,4.3,88,0.00,,---,0.20,VWS V14.00,2013-08-05 21:38:00,
2013-08-05 16:44:00,79.5,75.7,29.74,SE,135,3.5,3.5,88,0.00,,---,0.20,VWS V14.00,2013-08-05 21:44:00,
2013-08-05 16:49:00,79.7,75.8,29.74,South,180,2.1,2.1,88,0.00,,---,0.20,VWS V14.00,2013-08-05 21:49:00,
2013-08-05 16:54:00,79.9,76.0,29.74,SW,225,2.4,2.4,88,0.00,,---,0.20,VWS V14.00,2013-08-05 21:54:00,
2013-08-05 17:00:00,79.7,75.5,29.74,South,180,1.0,0.0,87,0.00,,---,0.20,VWS V14.00,2013-08-05 22:00:00,
2013-08-05 17:06:00,79.5,75.0,29.74,South,180,1.0,0.0,86,0.00,,---,0.20,VWS V14.00,2013-08-05 22:06:00,
2013-08-05 17:11:00,79.3,75.1,29.74,SW,225,1.0,0.0,87,0.00,,---,0.20,VWS V14.00,2013-08-05 22:11:00,
2013-08-05 17:18:00,79.2,75.0,29.74,SSE,158,2.4,2.4,87,0.00,,---,0.20,VWS V14.00,2013-08-05 22:18:00,
2013-08-05 17:23:00,79.2,75.0,29.74,SSE,158,4.4,4.4,87,0.00,,---,0.20,VWS V14.00,2013-08-05 22:23:00,
2013-08-05 17:28:00,79.0,74.8,29.74,ESE,112,2.4,2.4,87,0.00,,---,0.20,VWS V14.00,2013-08-05 22:28:00,
2013-08-05 17:33:00,79.2,75.0,29.74,SW,225,1.0,1.1,87,0.00,,---,0.20,VWS V14.00,2013-08-05 22:33:00,
2013-08-05 17:38:00,79.3,75.1,29.71,South,180,3.0,3.1,87,0.00,,---,0.20,VWS V14.00,2013-08-05 22:38:00,
2013-08-05 17:43:00,79.5,75.3,29.71,SSE,158,2.7,3.6,87,0.00,,---,0.20,VWS V14.00,2013-08-05 22:43:00,
2013-08-05 17:49:00,79.7,75.8,29.71,South,180,4.9,4.9,88,0.00,,---,0.20,VWS V14.00,2013-08-05 22:49:00,
2013-08-05 17:54:00,79.7,75.5,29.71,South,180,1.0,2.5,87,0.00,,---,0.20,VWS V14.00,2013-08-05 22:54:00,
2013-08-05 17:59:00,79.7,75.5,29.71,SSW,202,4.1,4.1,87,0.00,,---,0.20,VWS V14.00,2013-08-05 22:59:00,
2013-08-05 18:04:00,79.5,75.3,29.71,ESE,112,3.5,3.5,87,0.00,,---,0.20,VWS V14.00,2013-08-05 23:04:00,
2013-08-05 18:09:00,79.3,75.1,29.71,SE,135,1.0,3.1,87,0.00,,---,0.20,VWS V14.00,2013-08-05 23:09:00,
2013-08-05 18:15:00,79.3,75.1,29.71,SSE,158,6.6,6.6,87,0.00,,---,0.20,VWS V14.00,2013-08-05 23:15:00,
2013-08-05 18:23:00,79.5,75.3,29.71,SSE,158,8.0,8.0,87,0.00,,---,0.20,VWS V14.00,2013-08-05 23:23:00,
2013-08-05 18:29:00,79.5,75.3,29.71,SSE,158,4.1,4.1,87,0.00,,---,0.20,VWS V14.00,2013-08-05 23:29:00,
2013-08-05 18:34:00,79.5,75.3,29.68,ESE,112,4.6,4.6,87,0.00,,---,0.20,VWS V14.00,2013-08-05 23:34:00,
2013-08-05 18:39:00,79.5,75.3,29.68,SSE,158,5.8,5.8,87,0.00,,---,0.20,VWS V14.00,2013-08-05 23:39:00,
2013-08-05 18:46:00,79.7,75.5,29.68,SSE,158,4.4,4.4,87,0.00,,---,0.20,VWS V14.00,2013-08-05 23:46:00,
2013-08-05 18:52:00,79.7,75.5,29.68,SSE,158,4.6,4.6,87,0.00,,---,0.20,VWS V14.00,2013-08-05 23:52:00,
2013-08-05 18:58:00,79.5,75.3,29.68,SSW,202,4.6,4.6,87,0.00,,---,0.20,VWS V14.00,2013-08-05 23:58:00,
2013-08-05 19:04:00,79.3,75.1,29.68,ESE,112,1.0,3.8,87,0.00,,---,0.20,VWS V14.00,2013-08-06 00:04:00,
2013-08-05 19:09:00,79.2,75.0,29.68,SE,135,6.0,6.0,87,0.00,,---,0.20,VWS V14.00,2013-08-06 00:09:00,
2013-08-05 19:14:00,79.0,74.8,29.68,SSE,158,6.3,6.9,87,0.00,,---,0.20,VWS V14.00,2013-08-06 00:14:00,
2013-08-05 19:19:00,78.8,74.6,29.68,SSE,158,2.7,2.7,87,0.00,,---,0.20,VWS V14.00,2013-08-06 00:19:00,
2013-08-05 19:25:00,78.4,74.2,29.68,SSE,158,3.8,3.8,87,0.00,,---,0.20,VWS V14.00,2013-08-06 00:25:00,
2013-08-05 19:31:00,78.3,74.4,29.68,SSE,158,5.5,5.5,88,0.00,,---,0.20,VWS V14.00,2013-08-06 00:31:00,
2013-08-05 19:36:00,78.1,74.2,29.71,SSE,158,6.3,6.3,88,0.00,,---,0.20,VWS V14.00,2013-08-06 00:36:00,
2013-08-05 19:42:00,77.9,74.1,29.71,SE,135,5.5,5.5,88,0.00,,---,0.20,VWS V14.00,2013-08-06 00:42:00,
2013-08-05 19:48:00,77.7,73.9,29.71,SSE,158,6.0,6.0,88,0.00,,---,0.20,VWS V14.00,2013-08-06 00:48:00,
2013-08-05 19:53:00,77.7,73.9,29.71,ESE,112,4.1,4.1,88,0.00,,---,0.20,VWS V14.00,2013-08-06 00:53:00,
2013-08-05 19:58:00,77.5,73.7,29.71,SSW,202,1.0,0.0,88,0.00,,---,0.20,VWS V14.00,2013-08-06 00:58:00,
2013-08-05 20:04:00,77.5,74.1,29.71,SE,135,4.6,4.6,89,0.00,,---,0.20,VWS V14.00,2013-08-06 01:04:00,
2013-08-05 20:09:00,77.5,74.1,29.71,SSE,158,1.0,0.0,89,0.00,,---,0.20,VWS V14.00,2013-08-06 01:09:00,
2013-08-05 20:14:00,77.5,74.1,29.71,SSE,158,1.0,2.0,89,0.00,,---,0.20,VWS V14.00,2013-08-06 01:14:00,
2013-08-05 20:19:00,77.5,74.1,29.71,SE,135,1.0,2.0,89,0.00,,---,0.20,VWS V14.00,2013-08-06 01:19:00,
2013-08-05 20:24:00,77.4,73.9,29.71,SE,135,4.9,4.9,89,0.00,,---,0.20,VWS V14.00,2013-08-06 01:24:00,
2013-08-05 20:29:00,77.4,73.9,29.71,SE,135,2.4,2.4,89,0.00,,---,0.20,VWS V14.00,2013-08-06 01:29:00,
2013-08-05 20:35:00,77.4,73.9,29.71,ESE,112,4.9,4.9,89,0.00,,---,0.20,VWS V14.00,2013-08-06 01:35:00,
2013-08-05 20:40:00,77.4,73.9,29.71,SE,135,4.4,4.4,89,0.00,,---,0.20,VWS V14.00,2013-08-06 01:40:00,
2013-08-05 20:46:00,77.4,73.9,29.71,SE,135,2.1,2.1,89,0.00,,---,0.20,VWS V14.00,2013-08-06 01:46:00,
2013-08-05 20:52:00,77.4,73.9,29.71,SSE,158,3.8,3.8,89,0.00,,---,0.20,VWS V14.00,2013-08-06 01:52:00,
2013-08-05 20:58:00,77.2,73.7,29.71,South,180,4.4,4.4,89,0.00,,---,0.20,VWS V14.00,2013-08-06 01:58:00,
2013-08-05 21:04:00,77.2,73.7,29.71,SSE,158,5.2,5.2,89,0.00,,---,0.20,VWS V14.00,2013-08-06 02:04:00,
2013-08-05 21:10:00,77.0,73.5,29.71,SSE,158,4.4,4.4,89,0.00,,---,0.20,VWS V14.00,2013-08-06 02:10:00,
2013-08-05 21:15:00,77.0,73.5,29.71,SSE,158,4.4,4.4,89,0.00,,---,0.20,VWS V14.00,2013-08-06 02:15:00,
2013-08-05 21:20:00,77.0,73.5,29.71,SSE,158,1.0,1.3,89,0.00,,---,0.20,VWS V14.00,2013-08-06 02:20:00,
2013-08-05 21:25:00,77.0,73.5,29.71,South,180,2.7,2.7,89,0.00,,---,0.20,VWS V14.00,2013-08-06 02:25:00,
2013-08-05 21:30:00,76.8,73.7,29.71,ESE,112,1.0,0.0,90,0.00,,---,0.20,VWS V14.00,2013-08-06 02:30:00,
2013-08-05 21:35:00,76.8,73.7,29.71,ESE,112,1.0,0.0,90,0.00,,---,0.20,VWS V14.00,2013-08-06 02:35:00,
2013-08-05 21:40:00,76.8,73.7,29.71,SE,135,1.0,0.0,90,0.00,,---,0.20,VWS V14.00,2013-08-06 02:40:00,
2013-08-05 21:46:00,76.8,73.7,29.71,South,180,1.0,0.0,90,0.00,,---,0.20,VWS V14.00,2013-08-06 02:46:00,
2013-08-05 21:52:00,76.6,73.5,29.71,South,180,1.0,0.0,90,0.00,,---,0.20,VWS V14.00,2013-08-06 02:52:00,
2013-08-05 21:58:00,76.6,73.5,29.71,SW,225,1.0,0.0,90,0.00,,---,0.20,VWS V14.00,2013-08-06 02:58:00,
2013-08-05 22:03:00,76.6,73.5,29.71,SSW,202,1.0,0.0,90,0.00,,---,0.20,VWS V14.00,2013-08-06 03:03:00,
2013-08-05 22:09:00,76.5,73.3,29.71,SW,225,1.0,1.3,90,0.00,,---,0.20,VWS V14.00,2013-08-06 03:09:00,
2013-08-05 22:14:00,76.5,73.3,29.71,South,180,1.0,1.6,90,0.00,,---,0.20,VWS V14.00,2013-08-06 03:14:00,
2013-08-05 22:19:00,76.5,73.6,29.71,South,180,1.0,2.9,91,0.00,,---,0.20,VWS V14.00,2013-08-06 03:19:00,
2013-08-05 22:25:00,76.5,73.6,29.71,SSE,158,4.4,4.7,91,0.00,,---,0.20,VWS V14.00,2013-08-06 03:25:00,
2013-08-05 22:31:00,76.5,73.6,29.71,SSE,158,3.5,4.3,91,0.00,,---,0.20,VWS V14.00,2013-08-06 03:31:00,
2013-08-05 22:36:00,76.3,73.5,29.68,SE,135,2.1,4.3,91,0.00,,---,0.20,VWS V14.00,2013-08-06 03:36:00,
2013-08-05 22:42:00,76.3,73.5,29.68,SE,135,1.0,3.1,91,0.00,,---,0.20,VWS V14.00,2013-08-06 03:42:00,
2013-08-05 22:48:00,76.5,73.6,29.68,SSE,158,4.4,4.4,91,0.00,,---,0.20,VWS V14.00,2013-08-06 03:48:00,
2013-08-05 22:53:00,76.3,73.5,29.68,SW,225,1.0,0.0,91,0.00,,---,0.20,VWS V14.00,2013-08-06 03:53:00,
2013-08-05 23:00:00,76.3,73.5,29.68,SE,135,1.0,2.5,91,0.00,,---,0.20,VWS V14.00,2013-08-06 04:00:00,
2013-08-05 23:01:00,76.3,73.8,29.68,SE,135,1.0,1.0,92,0.00,,---,0.20,VWS V14.00,2013-08-06 04:01:00,
2013-08-05 23:02:00,76.3,73.8,29.71,SE,135,1.0,1.1,92,0.00,,---,0.20,VWS V14.00,2013-08-06 04:02:00,
2013-08-05 23:05:00,76.3,73.8,29.71,SSE,158,1.0,0.0,92,0.00,,---,0.20,VWS V14.00,2013-08-06 04:05:00,
2013-08-05 23:07:00,76.3,73.5,29.71,ESE,112,1.0,0.0,91,0.00,,---,0.20,VWS V14.00,2013-08-06 04:07:00,
2013-08-05 23:08:00,76.5,73.6,29.71,South,180,1.0,0.0,91,0.00,,---,0.20,VWS V14.00,2013-08-06 04:08:00,
2013-08-05 23:13:00,76.5,74.0,29.71,ESE,112,1.0,1.0,92,0.00,,---,0.20,VWS V14.00,2013-08-06 04:13:00,
2013-08-05 23:18:00,76.5,74.0,29.71,ESE,112,3.8,3.8,92,0.00,,---,0.20,VWS V14.00,2013-08-06 04:18:00,
2013-08-05 23:23:00,76.5,74.0,29.71,ESE,112,1.0,2.2,92,0.00,,---,0.20,VWS V14.00,2013-08-06 04:23:00,
2013-08-05 23:28:00,76.5,74.0,29.71,East,90,3.0,3.0,92,0.00,,---,0.20,VWS V14.00,2013-08-06 04:28:00,
2013-08-05 23:33:00,76.5,74.0,29.68,NW,315,3.5,3.5,92,0.00,,---,0.20,VWS V14.00,2013-08-06 04:33:00,
2013-08-05 23:38:00,76.5,74.0,29.68,North,0,1.0,1.0,92,0.00,,---,0.20,VWS V14.00,2013-08-06 04:38:00,
2013-08-05 23:43:00,76.5,74.0,29.68,NW,315,3.8,3.8,92,0.00,,---,0.20,VWS V14.00,2013-08-06 04:43:00,
2013-08-05 23:48:00,76.5,74.3,29.68,SSW,202,1.0,0.0,93,0.00,,---,0.20,VWS V14.00,2013-08-06 04:48:00,
2013-08-05 23:53:00,76.5,74.3,29.68,SE,135,1.0,1.1,93,0.00,,---,0.20,VWS V14.00,2013-08-06 04:53:00,
2013-08-05 23:59:00,76.5,74.3,29.68,SE,135,1.0,3.1,93,0.00,,---,0.20,VWS V14.00,2013-08-06 04:59:00,